Regional Weather Roundup
Issued by NWS Glasgow, MT

Home | Current Version | Previous Version | Text Only | Print | Product List | Glossary On
Versions: 1 2 3 4 5 6 7 8 9 10 11 12 13 14 15 16 17 18 19 20 21 22 23 24 25 26 27 28 29 30 31 32 33 34 35 36 37 38 39 40 41 42 43 44 45 46 47 48 49 50
000
ASUS45 KGGW 010315
RWRGGW
HOURLY WEATHER ROUNDUP FOR NORTHEAST MONTANA
NATIONAL WEATHER SERVICE GLASGOW MONTANA
800 PM MST SAT JAN 31 2015

NOTE: "FAIR" INDICATES FEW OR NO CLOUDS BELOW 12,000 FEET WITH NO
SIGNIFICANT WEATHER AND/OR OBSTRUCTIONS TO VISISBILITY.

NORTHEAST MONTANA


CITY           SKY/WX    TMP DP  RH WIND       PRES   REMARKS
GLASGOW        LGT SNOW   6   0  76 NE8       30.42R
PLENTYWOOD       N/A      1  -4  79 NE12        N/A  WCI -16
WOLF POINT     LGT SNOW   6  -2  69 NE14      30.45R WCI -11
JORDAN           N/A      8   3  80 NE12      30.35R WCI  -7
WINNETT          N/A     11   8  88 N12         N/A  WCI  -3
SIDNEY         PTCLDY     3  -2  78 N12G18    30.44R WCI -13
GLENDIVE       PTCLDY     3   0  85 NE15      30.33R WCI -15
MALTA            N/A      7   4  87 NE7         N/A
SCOBEY           N/A      1 -10  60 N8        30.37R

FORT PECK REPORTS


CITY           SKY/WX    TMP DP  RH WIND       PRES   REMARKS
FORT PECK        N/A      6   2  83 NE12        N/A  WCI  -9
THE PINES        N/A      7   4  87 NE13        N/A  WCI  -9

SOUTHEAST MONTANA


CITY           SKY/WX    TMP DP  RH WIND       PRES   REMARKS
BILLINGS       NOT AVBL
MILES CITY     FLURRIES  10   6  84 N14       30.29R WCI  -6
BAKER          LGT SNOW   6   2  83 E13       30.24R FOG     WCI -10
LIVINGSTON     FLURRIES  19   8  62 NW5       30.19R

CENTRAL MONTANA


CITY           SKY/WX    TMP DP  RH WIND       PRES   REMARKS
HAVRE          LGT SNOW   8   3  80 NE7       30.42S
LEWISTOWN      CLOUDY     9   5  84 W7        30.26S
GREAT FALLS    CLOUDY     9   5  84 CALM      30.33R
CUT BANK       PTCLDY     2  -2  83 N5        30.32S
HELENA         CLOUDY    18   8  65 N8        30.27S
BUTTE          PTCLDY    22  16  78 N3        30.12R
BOZEMAN        CLOUDY    20  13  74 CALM      30.20R

WESTERN MONTANA


CITY           SKY/WX    TMP DP  RH WIND       PRES   REMARKS
MISSOULA       PTCLDY    32  25  75 NW10      30.19S
KALISPELL      NOT AVBL

NORTH DAKOTA


CITY           SKY/WX    TMP DP  RH WIND       PRES   REMARKS
WILLISTON      FLURRIES   0  -8  69 NE10      30.45R WCI -16
DICKINSON      LGT SNOW   1  -4  79 NE15      30.26R VSB 1   WCI -18
MINOT          CLOUDY    -6 -14  68 N14       30.46S WCI -26
BISMARCK       LGT SNOW   0  -5  79 NE18      30.39R WCI -21

SOUTHERN SASKATCHEWAN


CITY           SKY/WX    TMP DP  RH WIND       PRES   REMARKS
REGINA         PTCLDY    -6 -13  71 NE3       30.51F
ESTEVAN        CLOUDY    -6 -17  59 E7        30.48S
SWIFT CURRENT  CLOUDY    -4  -8  84 SE3       30.41S




USA.gov is the U.S. government's official web portal to all federal, state and local government web resources and services.